Lid_Strength_Index
-0 -1 -1 -1 -1 -1 -1 -1 -1 -1 -1 -1 -1 -1 -1 -1 -1 -1 -1 -2 -1 -1 -1 -1 -1 -2 -2 -3 -2 -2 -2 -1 -2 -1 -2 -2 -2 -2 -2 -2 -2 -2 -2
-0 -0 -0 -0 -1 -1 -1 -1 -1 -1 -1 -1 -1 -1 -1 -1 -1 -2 -1 -2 -2 -2 -1 -1 -2 -2 -2 -2 -3 -3 -2 -2 -1 -1 -2 -2 -2 -2 -2 -2 -2 -2 -2
-0 -1 -0 -0 -1 -1 -1 -1 -1 -1 -0 -1 -1 -0 -0 -1 -1 -1 -1 -2 -2 -1 -1 -2 -2 -2 -2 -2 -2 -2 -2 -2 -2 -2 -2 -2 -2 -2 -2 -2 -2 -2 -2
-1 -0 -0 -0 -1 -1 -1 -0 -0 0 0 1 0 0 0 -0 -1 -1 -1 -1 -2 -1 -1 -2 -1 -2 -2 -2 -2 -2 -2 -2 -2 -2 -2 -2 -2 -2 -2 -2 -2 -2 -2
-1 -0 -0 -0 -1 -0 -0 0 0 0 1 1 1 1 1 0 -1 -1 -1 -1 -2 -1 -1 -1 -1 -1 -2 -2 -2 -2 -2 -2 -2 -2 -2 -2 -2 -2 -1 -2 -2 -2 -1
-0 -0 -0 -0 -0 0 0 0 0 0 1 1 2 2 1 0 -0 -0 -0 -1 -1 -1 -1 -1 -1 -1 -2 -1 -2 -2 -2 -2 -2 -2 -1 -1 -1 -1 -1 -1 -2 -2 -2
-0 -0 -0 -0 -0 0 0 -0 0 1 1 1 2 1 1 0 0 -0 -0 -0 -1 -1 -1 -1 -1 -1 -1 -1 -1 -2 -2 -2 -2 -2 -1 -1 -1 -1 -1 -1 -1 -1 -2
-0 -0 -0 0 -0 0 0 0 0 1 1 0 2 2 4 3 1 0 0 0 -0 -1 -0 -1 -1 -1 -1 -1 -2 -1 -2 -2 -2 -2 -2 -1 -1 -1 -1 -2 -1 -1 -2
-0 -0 -0 -0 -0 0 1 0 0 1 2 1 1 2 5 6 3 1 1 0 0 0 -1 -1 -1 -1 -1 -1 -1 -1 -1 -1 -2 -2 -2 -2 -1 -2 -1 -1 -1 -1 -1
-0 -0 -0 -0 -0 0 0 0 0 1 1 2 1 1 1 1 4 5 1 1 0 0 -0 -0 -1 -1 -1 -1 -1 -1 -1 -1 -1 -2 -2 -2 -1 -2 -2 -1 -1 -1 -1
-0 -0 -0 -0 0 0 0 0 0 1 1 1 2 2 2 2 2 3 5 3 1 0 -0 -0 -1 -1 -1 -1 -1 -1 -1 -1 -1 -1 -1 -1 -1 -1 -2 -1 -1 -1 -1
0 0 -0 -0 0 0 0 0 0 0 1 1 1 1 2 3 3 4 4 3 3 1 0 -0 -0 -1 -1 -1 -1 -1 0 0 0 0 -0 -1 -2 -1 -2 -1 -1 -1 -1
1 1 0 0 0 0 -0 -0 0 0 1 1 1 1 1 2 2 2 3 3 3 2 1 0 -1 -1 -1 -1 -1 -1 -0 0 1 1 1 0 -0 -1 -1 -1 -1 -1 -1
1 -0 0 0 0 -0 -0 -0 0 0 0 1 1 1 1 1 1 1 2 3 4 3 2 2 -1 -0 -1 -1 -1 -0 -1 0 1 2 2 2 1 1 0 -0 -0 -1 -1
0 0 0 0 0 0 0 0 1 1 0 0 1 1 1 1 1 1 1 1 3 5 4 2 2 -0 -0 -1 -1 -2 -1 1 1 2 2 2 2 2 1 1 1 1 1
0 0 0 0 0 0 0 0 1 0 1 1 1 1 1 1 0 0 1 1 1 2 4 1 1 0 -1 -1 -1 -1 -1 0 2 2 2 2 3 3 2 2 2 2 1
0 0 1 1 1 1 0 1 1 1 1 1 1 1 1 0 1 1 1 1 1 1 3 2 1 0 0 0 -1 -1 -1 -1 -1 2 3 3 3 3 3 3 3 2 2
0 0 0 1 1 1 1 1 1 1 1 1 1 1 1 1 1 0 1 1 1 1 2 3 2 1 1 0 0 0 -0 -1 -1 2 3 3 4 4 4 4 4 3 3
1 0 1 1 1 1 1 1 1 1 1 1 1 1 1 1 1 1 1 1 1 1 1 2 3 1 1 0 1 0 0 -0 -1 2 4 4 5 5 5 4 4 4 5
1 1 1 1 1 1 1 1 1 1 1 1 1 0 1 1 1 1 1 1 1 1 1 2 2 2 2 1 1 2 2 0 1 0 2 3 4 5 5 4 4 4 5
1 1 1 1 1 1 1 1 1 1 1 1 1 0 0 1 2 1 1 1 1 1 2 3 3 3 3 3 3 2 2 1 1 1 1 1 2 2 3 3 2 3 5
1 1 1 1 1 1 9 7 2 1 1 1 1 1 0 2 2 5 4 3 1 1 2 3 3 3 3 2 2 2 2 3 4 0 1 2 1 2 2 1 4 6 6
1 1 2 1 1 2 11 10 6 0 1 1 1 1 1 0 1 0 5 5 4 5 3 1 2 3 2 1 1 2 2 2 2 1 1 2 2 2 2 3 6 6 7
2 2 1 1 2 7 12 10 7 0 0 0 0 0 1 1 0 1 1 1 1 0 0 0 0 1 0 0 0 0 1 1 1 0 -0 3 2 2 2 2 6 6 7
2 2 3 3 3 4 11 10 4 1 1 1 0 0 0 0 8 8 1 1 1 1 6 7 6 7 7 6 2 0 2 2 3 2 0 1 2 3 2 2 3 7 7
3 2 2 1 4 3 12 11 3 1 1 2 1 0 7 2 10 9 1 1 2 2 1 0 0 4 3 3 6 -1 1 3 3 3 0 2 2 2 3 1 0 1 1